Terminal Aerodrome Forecast
Issued by NWS

Home | Current Version | Previous Version | Text Only | Print | Product List | Glossary On
Versions: 1 2 3 4 5 6 7 8 9 10 11 12 13 14 15 16 17 18 19 20 21 22 23 24 25 26 27 28 29 30 31 32 33 34 35 36 37 38 39 40 41 42 43 44 45 46 47 48 49 50
000
FTUS41 KRNK 042321
TAFBCB
TAF
KBCB 042321Z 0500/0524 30003KT P6SM -DZ OVC020
     FM050300 32008KT 4SM -RA BR OVC012
     FM050600 32005KT 2SM -RA BR OVC008
     FM051200 32005KT 2SM -SNPL BR OVC006
     FM051600 33006KT 1SM -SN BR OVC004
     FM052200 33006KT 4SM -SN BR OVC010=

USA.gov is the U.S. government's official web portal to all federal, state and local government web resources and services.